When you browse on this site, cookies collect data to enhance your experience and personalize the content and advertising you see.
Visit our Privacy Policy to learn more. By continuing to use the site, you agree to this use of cookies and data.
  • In Denmark
  • List of Countries
  • For 7 days
  • Water Temperature
  • Satellite Maps
  • Weather Map
  • Weather Widgets
  • user-avatar
    Login

    Hourly Weather Jeziorsko

    Today, 19 December, Wednesday

    Time Temperature Precipitation Wind Pressure Humidity
    00:00 -1°C° 0 mm 3 mps 760 mmHg 90%
    01:00 -2°C° 0 mm 3 mps 759 mmHg 89%
    02:00 -2°C° 0 mm 3 mps 759 mmHg 89%
    03:00 -3°C° 0 mm 4 mps 759 mmHg 88%
    04:00 -3°C° 0 mm 4 mps 759 mmHg 88%
    05:00 -3°C° 0 mm 4 mps 759 mmHg 88%
    06:00 -3°C° 0 mm 4 mps 759 mmHg 87%
    07:00 -4°C° 0 mm 4 mps 758 mmHg 88%
    08:00 -5°C° 0 mm 5 mps 758 mmHg 85%
    09:00 -4°C° 0 mm 5 mps 758 mmHg 82%
    10:00 -4°C° 0 mm 6 mps 758 mmHg 80%
    11:00 -4°C° 0 mm 6 mps 757 mmHg 78%
    12:00 -2°C° 0 mm 5 mps 757 mmHg 76%
    13:00 -2°C° 0 mm 5 mps 757 mmHg 74%
    14:00 -2°C° 0 mm 5 mps 756 mmHg 75%
    15:00 -2°C° 0 mm 5 mps 756 mmHg 77%
    16:00 -4°C° 0 mm 5 mps 756 mmHg 78%
    17:00 -4°C° 0 mm 5 mps 755 mmHg 79%
    18:00 -4°C° 0 mm 5 mps 755 mmHg 79%
    19:00 -4°C° 0 mm 5 mps 755 mmHg 79%
    20:00 -4°C° 0 mm 5 mps 755 mmHg 79%
    21:00 -4°C° 0 mm 5 mps 755 mmHg 79%
    22:00 -4°C° 0 mm 5 mps 754 mmHg 79%
    23:00 -4°C° 0 mm 5 mps 754 mmHg 79%

    Tomorrow, 20 December, Thursday

    Time Temperature Precipitation Wind Pressure Humidity
    00:00 -3°C° 0 mm 4 mps 754 mmHg 79%
    01:00 -3°C° 0 mm 4 mps 754 mmHg 78%
    02:00 -3°C° 0 mm 4 mps 754 mmHg 78%
    03:00 -3°C° 0 mm 4 mps 754 mmHg 78%
    04:00 -2°C° 0 mm 3 mps 753 mmHg 78%
    05:00 -1°C° 0 mm 3 mps 753 mmHg 77%
    06:00 -1°C° 0 mm 3 mps 753 mmHg 77%
    07:00 -1°C° 0 mm 3 mps 753 mmHg 76%
    08:00 -2°C° 0 mm 4 mps 753 mmHg 75%
    09:00 -2°C° 0 mm 4 mps 753 mmHg 74%
    10:00 -2°C° 0 mm 4 mps 753 mmHg 72%
    11:00 -2°C° 0 mm 4 mps 753 mmHg 72%
    12:00 -2°C° 0 mm 4 mps 753 mmHg 72%
    13:00 -2°C° 0 mm 4 mps 753 mmHg 72%
    14:00 -1°C° 0 mm 3 mps 753 mmHg 75%
    15:00 -1°C° 0 mm 3 mps 753 mmHg 78%
    16:00 -1°C° 0 mm 3 mps 753 mmHg 81%
    17:00 -1°C° 0.1 mm 3 mps 753 mmHg 84%
    18:00 -1°C° 0.1 mm 3 mps 753 mmHg 87%
    19:00 -1°C° 0.1 mm 3 mps 753 mmHg 89%
    20:00 -1°C° 0.2 mm 3 mps 753 mmHg 90%
    21:00 -1°C° 0.2 mm 3 mps 753 mmHg 91%
    22:00 -1°C° 0.2 mm 4 mps 753 mmHg 91%
    23:00 -1°C° 0 mm 4 mps 752 mmHg 91%

    Day after tomorrow, 21 December, Friday

    Time Temperature Precipitation Wind Pressure Humidity
    00:00 -1°C° 0 mm 4 mps 752 mmHg 91%
    01:00 -1°C° 0 mm 4 mps 752 mmHg 91%
    02:00 -1°C° 0 mm 4 mps 752 mmHg 91%
    03:00 -1°C° 0 mm 4 mps 752 mmHg 91%
    04:00 -1°C° 0 mm 4 mps 752 mmHg 91%
    05:00 -1°C° 0 mm 4 mps 751 mmHg 91%
    06:00 -1°C° 0 mm 4 mps 751 mmHg 91%
    07:00 -1°C° 0 mm 4 mps 751 mmHg 91%
    08:00 -1°C° 0 mm 4 mps 751 mmHg 90%
    09:00 0°C° 0 mm 5 mps 751 mmHg 90%
    10:00 0°C° 0 mm 5 mps 750 mmHg 89%
    11:00 0°C° 0 mm 5 mps 750 mmHg 89%
    12:00 +1°C° 0 mm 5 mps 749 mmHg 88%
    13:00 +1°C° 0 mm 5 mps 748 mmHg 87%
    14:00 +1°C° 0.1 mm 5 mps 748 mmHg 88%
    15:00 0°C° 0.1 mm 5 mps 747 mmHg 88%
    16:00 0°C° 0.1 mm 5 mps 746 mmHg 88%
    17:00 0°C° 0.3 mm 5 mps 746 mmHg 88%
    18:00 0°C° 0.3 mm 5 mps 745 mmHg 88%
    19:00 0°C° 0.3 mm 5 mps 744 mmHg 88%
    20:00 0°C° 0.7 mm 5 mps 743 mmHg 89%
    21:00 +1°C° 0.7 mm 6 mps 743 mmHg 89%
    22:00 +1°C° 0.7 mm 6 mps 742 mmHg 90%
    23:00 +2°C° 0.8 mm 6 mps 741 mmHg 90%

    22 December, Saturday

    Time Temperature Precipitation Wind Pressure Humidity
    00:00 +3°C° 0.8 mm 7 mps 741 mmHg 90%
    01:00 +3°C° 0.8 mm 7 mps 740 mmHg 90%
    02:00 +3°C° 0.1 mm 7 mps 740 mmHg 88%
    03:00 +3°C° 0.1 mm 7 mps 740 mmHg 86%
    04:00 +3°C° 0.1 mm 7 mps 740 mmHg 84%
    05:00 +3°C° 0 mm 7 mps 740 mmHg 84%
    06:00 +2°C° 0 mm 7 mps 740 mmHg 84%
    07:00 +2°C° 0 mm 6 mps 741 mmHg 85%
    08:00 +2°C° 0 mm 6 mps 741 mmHg 85%
    09:00 +3°C° 0 mm 7 mps 741 mmHg 85%
    10:00 +3°C° 0 mm 7 mps 741 mmHg 85%
    11:00 +4°C° 0 mm 7 mps 741 mmHg 85%
    12:00 +4°C° 0 mm 7 mps 741 mmHg 85%
    13:00 +4°C° 0 mm 7 mps 741 mmHg 85%
    14:00 +4°C° 0.9 mm 6 mps 741 mmHg 87%
    15:00 +4°C° 0.9 mm 6 mps 741 mmHg 90%
    16:00 +5°C° 0.9 mm 5 mps 741 mmHg 92%
    17:00 +4°C° 0.4 mm 6 mps 741 mmHg 91%
    18:00 +4°C° 0.4 mm 6 mps 741 mmHg 90%
    19:00 +4°C° 0.4 mm 7 mps 741 mmHg 88%
    20:00 +4°C° 0.2 mm 8 mps 741 mmHg 85%
    21:00 +3°C° 0.2 mm 9 mps 742 mmHg 82%
    22:00 +3°C° 0.2 mm 10 mps 743 mmHg 79%
    23:00 +2°C° 0.2 mm 10 mps 744 mmHg 80%

    23 December, Sunday

    Time Temperature Precipitation Wind Pressure Humidity
    00:00 +1°C° 0.2 mm 10 mps 745 mmHg 81%
    01:00 +1°C° 0.2 mm 10 mps 746 mmHg 81%
    02:00 +1°C° 0 mm 8 mps 747 mmHg 83%
    03:00 0°C° 0 mm 7 mps 748 mmHg 85%
    04:00 +1°C° 0 mm 6 mps 749 mmHg 86%
    05:00 +1°C° 0 mm 5 mps 749 mmHg 88%
    06:00 0°C° 0 mm 4 mps 750 mmHg 90%
    07:00 0°C° 0 mm 4 mps 751 mmHg 93%
    08:00 +1°C° 0 mm 3 mps 751 mmHg 92%
    09:00 +1°C° 0 mm 3 mps 751 mmHg 92%
    10:00 +2°C° 0 mm 2 mps 752 mmHg 92%
    11:00 +3°C° 0 mm 2 mps 752 mmHg 89%
    12:00 +3°C° 0 mm 2 mps 752 mmHg 87%
    13:00 +4°C° 0 mm 2 mps 752 mmHg 85%
    14:00 +3°C° 0.1 mm 2 mps 752 mmHg 87%
    15:00 +3°C° 0.1 mm 2 mps 752 mmHg 90%
    16:00 +3°C° 0.1 mm 2 mps 752 mmHg 92%
    17:00 +2°C° 0.2 mm 3 mps 752 mmHg 91%
    18:00 +1°C° 0.2 mm 4 mps 752 mmHg 91%
    19:00 +3°C° 0.2 mm 4 mps 752 mmHg 90%
    20:00 +3°C° 0 mm 4 mps 752 mmHg 90%
    21:00 +3°C° 0 mm 4 mps 752 mmHg 89%
    22:00 +1°C° 0 mm 4 mps 752 mmHg 89%
    23:00 +2°C° 0.1 mm 5 mps 752 mmHg 88%

    24 December, Monday

    Time Temperature Precipitation Wind Pressure Humidity
    00:00 +2°C° 0.1 mm 5 mps 752 mmHg 88%
    01:00 +2°C° 0.1 mm 5 mps 752 mmHg 88%
    02:00 +2°C° 0.1 mm 5 mps 751 mmHg 88%
    03:00 +2°C° 0.1 mm 6 mps 751 mmHg 88%
    04:00 +2°C° 0.1 mm 6 mps 751 mmHg 88%
    05:00 +2°C° 0.5 mm 6 mps 751 mmHg 87%
    06:00 +2°C° 0.5 mm 6 mps 751 mmHg 87%
    07:00 +2°C° 0.5 mm 6 mps 751 mmHg 86%
    08:00 +2°C° 0.1 mm 7 mps 752 mmHg 84%
    09:00 +2°C° 0.1 mm 7 mps 752 mmHg 82%
    10:00 +1°C° 0.1 mm 8 mps 753 mmHg 80%
    11:00 +1°C° 0.1 mm 8 mps 753 mmHg 79%
    12:00 +2°C° 0.1 mm 7 mps 754 mmHg 78%
    13:00 +2°C° 0.1 mm 7 mps 755 mmHg 77%
    14:00 +1°C° 0 mm 6 mps 755 mmHg 78%
    15:00 +1°C° 0 mm 5 mps 756 mmHg 79%
    16:00 +1°C° 0 mm 4 mps 757 mmHg 81%
    17:00 +1°C° 0.1 mm 4 mps 757 mmHg 82%
    18:00 +1°C° 0.1 mm 4 mps 757 mmHg 84%
    19:00 +1°C° 0.1 mm 4 mps 758 mmHg 86%
    20:00 +1°C° 0.1 mm 4 mps 758 mmHg 86%
    21:00 +1°C° 0.1 mm 4 mps 758 mmHg 87%
    22:00 +1°C° 0.1 mm 4 mps 758 mmHg 87%
    23:00 0°C° 0 mm 4 mps 758 mmHg 86%
    Show more